SCP
-0 -0 0 0 0 0 0 0 0 0 0 0 0 0 0 0 0 0 0 0 0 0 0 0 0 0 0 0 0 0 0 0 0 0 0 0 0 0 0 0 0 0 0
-0 -0 0 0 0 0 0 0 0 0 0 0 0 0 0 0 0 0 0 0 0 0 0 0 0 0 0 0 0 0 0 0 0 0 0 0 0 0 0 0 0 0 0
-0 -0 0 0 0 0 0 0 0 0 0 0 0 0 0 0 0 0 0 0 0 0 0 0 0 0 0 0 0 0 0 0 0 0 0 0 0 0 0 0 0 0 0
0 0 0 0 0 0 0 0 0 0 0 0 0 0 0 0 0 0 0 0 0 0 0 0 0 0 0 0 0 0 0 0 0 0 0 0 0 0 0 0 0 0 0
0 0 0 0 0 0 0 0 0 0 0 0 0 0 0 0 0 0 0 0 0 0 0 0 0 0 0 0 0 0 0 0 0 0 0 0 0 0 0 0 0 0 0
0 0 0 0 0 0 0 0 0 0 0 0 0 0 0 0 0 0 0 0 0 0 0 0 0 0 0 0 0 0 0 0 0 0 0 0 0 0 0 0 0 0 0
0 0 0 0 0 0 0 0 0 0 0 0 0 0 0 0 0 0 0 0 0 0 0 0 0 0 0 0 0 0 0 0 0 0 0 0 0 0 0 0 0 0 0
0 0 0 0 0 0 0 0 0 0 0 0 0 0 0 0 0 0 0 0 0 0 0 0 0 0 0 0 0 0 0 0 0 0 0 0 0 0 0 0 0 0 0
0 0 0 0 0 0 0 0 0 0 0 0 0 0 0 0 0 0 0 0 0 0 0 0 0 0 0 0 0 0 0 0 0 0 0 0 0 0 0 0 0 0 0
0 0 0 0 0 0 0 0 0 0 0 0 0 0 0 0 0 0 0 0 0 0 0 0 0 0 0 0 0 0 0 0 0 0 0 0 0 0 0 0 0 0 0
0 0 0 0 0 0 0 0 0 0 0 0 0 0 0 0 0 0 0 0 0 0 0 0 0 0 0 0 0 0 0 0 0 0 0 0 0 0 0 0 0 0 0
0 0 0 0 0 0 0 0 0 0 0 0 0 0 0 0 0 0 0 0 0 0 0 0 0 0 0 0 0 0 0 0 0 0 0 0 0 0 0 0 0 0 0
0 0 0 0 0 0 0 0 0 0 0 0 0 -0 -0 -0 0 0 0 0 0 0 0 0 0 0 0 0 0 0 0 0 0 0 0 0 0 0 0 0 0 0 0
0 0 0 0 0 0 0 0 0 0 0 0 0 -0 -0 -0 -0 0 0 0 0 0 0 0 0 0 0 0 0 0 0 0 0 0 0 0 0 0 0 0 0 0 0
0 0 0 0 0 0 0 0 0 0 0 0 0 0 0 0 0 0 0 0 0 0 0 0 0 0 0 0 0 0 0 0 0 0 0 0 0 0 0 0 0 0 0
0 0 0 0 0 0 0 0 0 0 0 0 0 0 0 0 0 0 0 0 0 0 0 0 0 0 0 0 0 0 0 0 0 0 0 0 0 0 0 0 0 0 0
0 0 0 0 0 0 0 0 0 0 0 0 0 0 0 0 0 0 0 0 0 0 0 0 0 0 0 0 0 0 0 0 0 0 0 0 0 0 0 0 0 0 0
0 0 0 0 0 0 0 0 0 0 0 0 0 0 0 0 0 0 0 0 0 0 0 0 0 0 0 0 0 0 0 0 0 0 0 0 0 0 0 0 0 0 0
0 0 0 0 0 0 0 0 0 0 0 0 0 0 0 0 0 0 0 0 0 0 0 0 0 0 0 0 0 0 0 0 0 0 0 0 0 0 0 0 0 0 0
0 0 0 0 0 0 0 0 0 0 0 0 0 0 0 0 0 0 0 0 0 0 0 0 0 0 0 0 0 0 0 0 0 0 0 0 0 0 0 0 0 0 0
0 0 0 0 0 0 0 0 0 0 0 0 0 0 0 0 0 0 0 0 0 0 0 0 0 0 0 0 0 0 0 0 0 0 0 0 0 0 0 0 0 0 0
0 0 0 0 0 0 0 0 0 0 0 0 0 0 0 0 0 0 0 0 0 0 0 0 0 0 0 0 0 0 0 0 0 0 0 0 0 0 0 0 0 0 0
0 0 0 0 0 0 0 0 0 0 0 0 0 0 0 0 0 0 0 0 0 0 0 0 0 0 0 0 0 0 0 0 0 0 0 0 0 0 0 0 0 0 0
0 0 0 0 0 0 0 0 0 0 0 0 0 0 0 0 0 0 0 0 0 0 0 0 0 0 0 0 0 0 0 0 0 0 0 0 0 0 0 0 0 0 0
0 0 0 0 0 0 0 0 0 0 0 0 0 0 0 0 0 0 0 0 0 0 0 0 0 0 0 0 0 0 0 0 0 0 0 0 0 0 0 0 0 0 0
0 0 0 0 0 0 0 0 0 0 0 0 0 0 0 0 0 0 0 0 0 0 0 0 0 0 0 0 0 0 0 0 0 0 0 0 0 0 0 0 0 0 0
Wind_Speed
0 0 5 7 8 8 9 10 10 11 11 11 11 11 12 12 12 12 11 11 11 11 10 10 10 10 10 10 9 9 9 9 9 8 8 8 8 7 7 8 7 5 8
3 1 5 7 8 9 9 10 11 11 11 11 11 11 11 11 11 11 11 11 10 10 10 10 10 10 10 10 9 9 9 9 8 7 7 7 7 8 8 8 8 5 8
4 3 4 7 8 9 9 10 10 10 10 11 11 11 11 11 11 11 11 10 10 10 10 10 10 9 10 9 9 9 8 8 8 7 6 3 4 7 8 8 8 8 8
5 3 5 8 9 9 10 10 10 10 10 11 11 11 11 11 10 10 10 10 10 10 10 10 9 9 9 9 8 8 8 8 8 7 4 3 3 7 8 7 8 8 8
5 4 5 8 9 9 10 10 9 9 10 10 10 10 10 10 10 10 10 10 10 10 10 10 9 9 9 9 8 7 8 8 8 7 4 3 2 6 7 7 7 7 7
5 4 5 8 9 9 9 9 9 9 9 9 9 10 9 9 9 9 9 10 10 10 9 9 8 8 8 8 8 7 8 8 7 4 3 2 2 6 8 7 7 7 7
5 4 4 8 8 8 8 9 9 9 9 9 9 9 9 9 9 9 9 9 9 9 9 8 8 7 8 8 8 8 8 8 5 4 3 2 3 7 8 7 7 6 7
6 4 4 7 8 8 8 8 8 8 8 8 8 8 8 8 8 8 8 8 8 8 7 7 7 7 7 7 7 8 8 7 6 5 3 2 5 8 8 7 7 7 7
5 4 3 2 4 6 7 7 7 7 7 7 6 6 7 7 7 7 7 7 7 6 6 7 7 7 7 7 7 8 9 8 4 2 3 2 5 8 8 7 7 7 7
4 4 3 2 2 2 2 5 6 6 6 5 5 5 5 5 5 5 5 5 5 5 5 5 6 6 6 7 7 8 9 7 3 3 2 3 6 7 8 7 7 7 7
3 2 3 2 1 1 1 2 3 4 4 3 3 3 3 2 2 2 3 4 4 4 4 4 5 6 6 7 7 7 6 3 3 2 1 4 6 6 7 7 7 8 7
3 3 2 3 2 1 1 2 1 1 1 1 1 1 1 1 1 2 3 4 4 4 4 5 5 5 5 3 5 6 3 3 2 1 2 5 6 7 7 7 7 7 7
5 4 3 3 2 2 1 1 1 1 1 1 1 1 1 1 1 2 1 2 2 3 3 3 4 3 3 2 2 3 3 2 2 2 2 5 6 6 6 6 6 7 7
4 4 3 4 3 2 2 2 1 1 1 1 1 2 2 1 1 1 1 1 1 1 2 2 2 2 3 3 3 3 3 2 2 2 2 6 6 6 6 5 5 6 7
4 3 4 4 4 3 3 2 2 1 1 1 1 1 2 1 1 1 1 1 1 1 1 1 2 2 3 3 3 4 3 3 3 2 2 6 6 5 5 5 5 5 6
3 4 3 4 4 4 3 2 2 1 1 2 2 2 2 2 1 1 1 1 1 1 1 2 2 3 2 3 4 3 3 3 3 2 2 3 5 5 4 4 5 5 5
3 3 4 5 4 4 3 3 2 2 2 2 2 2 3 2 2 2 2 1 1 1 2 2 3 3 3 3 4 3 3 3 3 2 2 2 2 4 4 4 4 4 5
4 3 4 4 4 3 3 3 2 2 3 2 2 2 3 3 3 3 2 2 1 2 2 2 2 3 3 3 3 3 3 3 3 3 2 2 2 2 3 4 3 3 3
5 5 4 4 4 3 3 3 3 2 3 2 2 2 3 3 3 3 2 2 2 2 2 2 2 2 3 2 2 3 3 2 2 3 3 3 2 2 2 4 4 3 3
6 6 5 4 3 3 3 3 2 3 2 2 2 2 3 2 3 3 2 2 2 2 2 2 2 2 2 2 3 3 3 2 2 2 2 2 2 3 2 2 2 3 3
5 6 5 4 3 3 2 2 2 1 1 2 2 2 2 2 3 3 2 2 2 2 2 2 2 3 2 2 3 3 3 3 3 2 2 2 2 2 2 2 2 2 2
5 5 4 4 4 3 2 2 2 2 1 1 1 2 3 3 2 2 2 2 2 2 2 2 2 2 1 1 2 2 2 3 3 3 2 2 2 2 2 2 2 2 1
5 5 5 4 4 3 3 3 3 3 2 2 2 2 2 2 2 2 2 2 2 2 1 1 2 3 1 1 1 3 2 1 1 3 3 2 2 2 2 2 2 2 1
6 5 5 5 4 3 4 4 4 3 2 1 0 1 2 2 2 2 2 2 2 2 2 1 1 2 2 1 1 1 2 3 2 1 3 3 3 2 2 2 2 1 1
6 6 5 5 4 3 4 4 5 3 2 1 1 2 2 2 2 2 2 2 2 1 1 1 1 1 2 2 1 1 1 1 1 2 0 2 3 2 2 1 1 1 1
5 5 5 5 4 3 4 4 4 4 3 3 2 1 1 1 2 2 2 2 2 1 1 1 1 1 1 1 1 1 2 2 1 2 1 1 1 2 2 2 1 1 1
Wind_Direction
276 301 77 81 77 76 76 76 77 77 76 78 79 80 77 77 77 79 81 83 85 86 85 83 84 89 91 92 95 95 97 100 102 101 102 104 103 105 109 110 110 105 107
162 133 91 90 86 82 80 79 81 82 81 81 82 81 80 79 77 77 79 82 84 85 85 84 83 85 85 87 91 91 91 94 95 95 99 102 103 106 107 112 114 110 106
128 114 100 93 90 88 85 83 83 84 84 84 84 83 82 82 80 78 78 79 82 83 84 84 84 84 84 84 84 84 85 87 89 88 91 96 106 112 112 112 114 109 106
124 112 104 97 91 91 90 88 86 85 83 84 86 85 83 83 81 80 81 78 79 81 84 83 83 83 82 84 82 81 84 82 82 82 77 77 99 110 111 111 113 112 110
118 110 111 103 97 94 94 92 90 89 87 86 87 86 83 82 80 79 81 79 77 78 81 79 79 81 82 81 78 80 84 84 79 75 72 67 80 110 112 111 112 112 110
117 114 113 107 101 98 96 95 95 93 93 90 90 90 86 83 82 81 81 80 77 77 81 79 79 81 83 79 72 78 84 84 78 74 73 76 92 112 115 114 115 115 113
118 113 114 110 107 103 101 98 97 97 98 96 92 92 91 89 85 83 81 82 79 77 80 77 74 78 80 77 73 77 84 85 83 79 73 79 98 107 108 115 116 115 112
127 120 115 114 109 105 103 103 101 99 99 99 96 94 93 93 90 87 87 86 81 77 76 74 72 76 75 70 71 73 75 79 86 81 72 82 107 108 106 104 109 111 112
123 120 108 111 106 108 109 108 108 104 101 98 97 96 96 95 94 90 88 89 87 82 75 72 71 71 72 68 67 70 68 70 72 77 87 94 113 113 111 110 108 111 107
120 127 124 118 97 97 113 114 107 104 100 97 93 92 96 93 91 91 88 91 91 87 80 75 70 67 68 68 67 66 63 60 58 62 72 105 109 112 113 113 113 115 115
132 140 141 142 136 123 133 122 104 99 96 89 80 88 83 58 52 66 77 84 85 78 75 73 70 63 64 65 66 62 58 50 55 48 63 95 105 112 113 109 112 118 115
160 171 158 151 150 147 127 79 44 48 51 47 42 52 56 52 37 65 60 71 70 65 62 64 60 58 55 46 52 51 49 54 54 44 68 90 102 110 109 108 109 110 110
164 164 170 160 149 137 93 96 62 39 42 38 45 68 67 50 35 45 39 34 42 51 40 37 36 37 47 47 46 45 50 59 52 40 56 87 96 103 109 110 112 113 113
134 150 154 159 139 132 119 105 93 65 46 42 25 67 73 57 48 63 58 38 40 42 47 42 45 38 43 47 55 59 58 55 49 43 53 77 86 92 100 107 111 113 113
139 147 147 141 139 131 109 101 97 87 75 61 47 48 82 81 69 72 65 67 46 48 64 60 59 58 54 53 60 67 64 58 56 51 46 67 73 82 92 100 108 114 114
143 142 143 132 134 124 113 110 101 94 80 66 55 55 77 85 80 75 79 79 60 48 71 85 82 82 69 65 61 59 63 61 60 62 52 53 60 68 82 93 104 111 113
142 129 132 127 118 117 117 115 101 84 77 69 57 52 63 73 79 78 80 75 60 67 76 77 67 69 68 64 56 50 55 56 58 56 47 36 34 48 66 87 98 111 112
138 122 123 121 114 111 107 99 89 81 82 71 58 47 51 61 71 75 73 63 58 77 83 88 76 73 62 58 55 43 45 48 49 52 46 38 35 31 37 58 83 98 124
145 135 122 116 121 117 105 100 91 81 77 71 63 54 47 56 72 81 73 57 65 73 72 91 78 88 80 64 66 54 41 43 37 51 47 39 42 40 28 36 46 57 81
142 135 127 124 131 125 105 88 75 63 59 60 59 56 60 62 70 78 77 59 60 73 63 72 83 70 89 90 79 57 33 27 31 38 40 44 43 43 39 29 25 27 50
134 134 140 139 135 127 112 107 98 77 49 44 43 50 64 69 72 78 78 69 69 79 88 94 92 80 59 68 76 47 19 21 29 27 30 45 41 33 40 35 38 27 19
148 146 137 132 136 136 139 149 135 126 102 80 43 39 46 58 61 84 81 79 78 80 71 81 94 93 61 64 100 91 28 2 4 18 19 40 29 26 34 38 36 37 27
149 155 150 146 142 135 126 106 86 67 51 41 35 23 14 49 66 81 91 95 90 95 109 108 113 118 126 8 77 124 135 200 312 346 2 17 14 18 12 23 33 29 36
161 151 144 143 139 135 130 127 127 126 129 174 160 36 8 28 53 67 85 94 99 97 105 127 114 120 130 139 13 60 142 156 151 325 337 348 359 11 4 17 17 20 17
154 148 149 141 135 135 132 134 133 128 132 121 83 66 37 17 33 49 71 83 90 91 92 81 81 108 123 142 153 130 87 75 105 139 267 328 343 339 348 348 0 1 6
148 147 148 144 148 145 131 131 139 140 133 118 101 89 47 16 18 32 64 74 82 80 79 83 87 107 110 120 134 144 149 148 166 142 166 265 308 315 337 348 5 352 348